Location: Berlin
(42.3812°N, 71.6370°W)
Time: 21:30:38
(UTC+00:00)

ATLAS 2AS CENTAUR R/B - Pass Details

Date: 15 November 2025
Orbit: 1047 x 1163 km, 63.7° (Epoch: 11 December)

Event Time Altitude Azimuth Distance (km) Brightness Sun altitude
Rises 00:04:05 0° 327° (NNW) 3,847 6.1 -29.4°
Reaches altitude 10° 00:07:09 10° 338° (NNW) 2,879 5.2 -29.9°
Enters shadow 00:10:49 25° 7° (N) 1,981 4.0 -30.6°
